sat.trackr.live / text

‹ back to catalog

JACK K

NORAD 66659 · 2025-274K

PAYLOAD ACTIVE UNKNOWN

§ Identity

Operator
Country
SKOR
Launch date
2025-11-26
Launch site
NSC
Launch vehicle
Mass (kg)
RCS (m²)

External: N2YO · Heavens-Above · Gunter

§ Orbital elements

Epoch: 2026-05-24T18:23:50.528256Z

Period
96.40 min
Inclination
97.7485°
Eccentricity
0.0015042
Mean motion
14.93726275 rev/d
Perigee alt
575.9 km
Apogee alt
596.8 km
Semi-major
6,964.5 km
B*
1.6138e-4
RAAN
74.4912°
Arg perigee
95.1592°
Mean anomaly
265.1345°
Rev number
2,673

§ Raw data

JACK K1 66659U 25274K   26144.76655704  .00001655  00000+0  16138-3 0  99972 66659  97.7485  74.4912 0015042  95.1592 265.1345 14.93726275 26734

JSON: /api/v1/satellites/66659 · /tle

For live sub-satellite position, see the globe view (requires WebGL).

§ Visibility from observer

Set your observer location to see the next 7 days of passes ≥ 10°. The values pass through the URL so the page stays shareable.

No JS? Fill the form by hand. The geolocation button needs JavaScript.